Weather in Candidasa

Indonesia     8°28′36″S   115°37′12″E
temp.,
°C
wind,
m/s
gust,
m/s
humid.,
%
clouds,
%
prec.,
mm/h
press.,
hPa
HPBL,
m
22 april, thu
thu2223:00+23se127451 0.0 1014112
02:00+21nw128691 0.0 1012103
05:00+21nw128595 0.0 1012142
08:00+25ssw126735 0.0 1013299
11:00+28sse325511 0.1 10131412
14:00+28sse43555 0.1 10101063
17:00+25s236838 0.0 1010713
20:00+21nw01857 0.0 101289
23 april, fri
fri2323:00+21nw11886 0.0 1013108
02:00+20nnw11907 0.0 1011119
05:00+20nnw228918 0.0 101169
08:00+25e026935 0.0 1012223
11:00+28sse32535 0.0 10121334
14:00+28s435840 0.0 10101170
17:00+26s236923 0.0 1010712
20:00+22nnw118737 0.0 101290
24 april, sat
sat2423:00+21nnw119157 0.0 101386
02:00+20nnw119217 0.0 101277
05:00+20nnw129118 0.0 101262
08:00+25w027428 0.0 1014517
11:00+28s32599 0.0 10131303
14:00+28sse426431 0.0 10101107
17:00+26s227315 0.0 1010646
20:00+22ese119040 0.1 101274
25 april, sun
sun2523:00+21n119318 0.0 101384
02:00+21nnw1193100 0.1 101254
05:00+23nnw118794 0.2 1012103
08:00+25s12815 0.5 1013280
11:00+29se336315 0.3 10131245
14:00+29sse436114 0.4 10101248
17:00+26sse237255 0.2 1010756
20:00+23e118971 0.4 101379
26 april, mon
mon2623:00+23e119319 0.4 1013103
02:00+22e229440 0.9 101292
05:00+22nne119688 0.3 101268
08:00+24ese13896 0.4 1013275
11:00+29sse32608 0.1 10121258
14:00+28sse436554 0.2 10111192
17:00+26se346724 0.2 1011962
20:00+24e1177100 0.2 1013113